Point Hope, AK

8:38 PM AKDT on March 22, 2017 (GMT -0800)
Point Hope

Weather History for PAPO - July, 2013

Change the Weather History Date:

Tuesday, July 30, 2013

  Actual Average Record
Temperature  
Mean Temperature 48 °F -  
Max Temperature 50 °F 48 °F 64 °F (1997)
Min Temperature 46 °F 41 °F 37 °F (2003)
Degree Days  
Heating Degree Days 17    
Moisture  
Dew Point 44 °F    
Average Humidity 87    
Maximum Humidity 93    
Minimum Humidity 82    
Precipitation  
Precipitation 0.11 in - - ()
Sea Level Pressure  
Sea Level Pressure 30.06 in    
Wind  
Wind Speed 17 mph (SSW)    
Max Wind Speed 20 mph    
Max Gust Speed -    
Visibility 6 miles    
Events      
Averages and records for this station are not official NWS values.
T = Trace of Precipitation, MM = Missing Value Source: NWS Daily Summary

Daily Weather History Graph

Daily Weather History Graph

Search for Another Location

Airport or City:

Trip Planner

Search our weather history database for the weather conditions in past years. The results will help you decide how hot, cold, wet, or windy it might be!

Date:

Astronomy

Jul. 30, 2013 Rise Set
Actual Time 5:07 AM AKDT 1:14 AM AKDT
Civil Twilight Sun does not rise Sun does not rise
Nautical Twilight Sun does not rise Sun does not rise
Astronomical Twilight Sun does not rise Sun does not rise
Moon 12:17 AM AKDT (7/30) 7:33 PM AKDT (7/30)
Length of Visible Light 24h 00m
Length of Day
20h 07m
Last Quarter, 39% of the Moon is Illuminated
Jul 30
Last Quarter
Aug 6
New
Aug 14
First Quarter
Aug 20
Full
Aug 28
Last Quarter

Hourly Weather History & Observations

Time (AKDT) Temp. Windchill Dew Point Humidity Pressure Visibility Wind Dir Wind Speed Gust Speed Precip Events Conditions
12:16 AM 46.4 °F 39.8 °F 44.6 °F 93% 30.04 in 5.0 mi SSE 16.1 mph - N/A   Mostly Cloudy
12:36 AM 46.4 °F 39.8 °F 42.8 °F 87% 30.04 in 8.0 mi South 16.1 mph - N/A   Mostly Cloudy
12:56 AM 46.4 °F 39.8 °F 42.8 °F 87% 30.04 in 8.0 mi South 16.1 mph - N/A   Overcast
1:16 AM 46.4 °F 39.5 °F 42.8 °F 87% 30.04 in 8.0 mi South 17.3 mph - N/A   Overcast
1:36 AM 46.4 °F 39.0 °F 42.8 °F 87% 30.04 in 10.0 mi South 19.6 mph - N/A   Overcast
1:56 AM 46.4 °F 39.5 °F 42.8 °F 87% 30.04 in 8.0 mi South 17.3 mph - N/A   Overcast
2:16 AM 46.4 °F 39.2 °F 42.8 °F 87% 30.04 in 7.0 mi South 18.4 mph - N/A   Overcast
2:36 AM 46.4 °F 39.0 °F 42.8 °F 87% 30.04 in 7.0 mi South 19.6 mph - N/A   Overcast
3:16 AM 46.4 °F 39.5 °F 42.8 °F 87% 30.04 in 3.0 mi SSW 17.3 mph - N/A   Overcast
3:36 AM 46.4 °F 39.5 °F 42.8 °F 87% 30.03 in 5.0 mi South 17.3 mph - N/A   Overcast
3:56 AM 46.4 °F 39.2 °F 42.8 °F 87% 30.03 in 5.0 mi South 18.4 mph - N/A   Overcast
4:16 AM 46.4 °F 39.2 °F 44.6 °F 93% 30.03 in 3.0 mi South 18.4 mph - N/A   Overcast
4:36 AM 46.4 °F 39.2 °F 44.6 °F 93% 30.03 in 2.5 mi South 18.4 mph - N/A   Overcast
4:56 AM 46.4 °F 39.2 °F 44.6 °F 93% 30.03 in 3.0 mi South 18.4 mph - 0.06 in   Overcast
5:16 AM 46.4 °F 39.2 °F 42.8 °F 87% 30.02 in 3.0 mi South 18.4 mph - 0.02 in   Overcast
5:36 AM 46.4 °F 40.1 °F 42.8 °F 87% 30.03 in 3.0 mi South 15.0 mph - 0.04 in   Overcast
5:56 AM 48.2 °F - 42.8 °F 82% 30.02 in 3.0 mi South 17.3 mph - 0.05 in   Overcast
6:16 AM 48.2 °F - 42.8 °F 82% 30.02 in 3.0 mi SSW 16.1 mph - N/A   Overcast
6:36 AM 48.2 °F - 42.8 °F 82% 30.02 in 2.5 mi SSW 17.3 mph - N/A   Overcast
6:56 AM 48.2 °F - 42.8 °F 82% 30.02 in 1.5 mi SSW 18.4 mph - N/A   Overcast
7:16 AM 48.2 °F - 42.8 °F 82% 30.02 in 2.0 mi SSW 17.3 mph - N/A   Overcast
7:36 AM 48.2 °F - 42.8 °F 82% 30.02 in 5.0 mi SSW 18.4 mph - N/A   Overcast
7:56 AM 48.2 °F - 42.8 °F 82% 30.02 in 1.8 mi SSW 16.1 mph - N/A   Overcast
8:16 AM 48.2 °F - 42.8 °F 82% 30.02 in 1.2 mi SSW 16.1 mph - N/A   Overcast
8:36 AM 48.2 °F - 42.8 °F 82% 30.03 in 1.2 mi SSW 17.3 mph - N/A   Overcast
8:56 AM 48.2 °F - 44.6 °F 87% 30.03 in 1.2 mi SSW 16.1 mph - N/A   Overcast
9:16 AM 48.2 °F - 44.6 °F 87% 30.03 in 2.5 mi South 17.3 mph - N/A   Overcast
9:36 AM 48.2 °F - 44.6 °F 87% 30.03 in 5.0 mi South 18.4 mph - N/A   Overcast
9:56 AM 48.2 °F - 44.6 °F 87% 30.03 in 5.0 mi South 17.3 mph - N/A   Overcast
10:16 AM 48.2 °F - 44.6 °F 87% 30.04 in 5.0 mi South 17.3 mph - N/A   Overcast
10:36 AM 48.2 °F - 44.6 °F 87% 30.04 in 5.0 mi South 16.1 mph - N/A   Overcast
10:56 AM 48.2 °F - 44.6 °F 87% 30.04 in 5.0 mi South 17.3 mph - N/A   Overcast
11:16 AM 48.2 °F - 44.6 °F 87% 30.04 in 5.0 mi South 17.3 mph - N/A   Overcast
11:36 AM 48.2 °F - 44.6 °F 87% 30.04 in 5.0 mi South 17.3 mph - N/A   Overcast
11:56 AM 48.2 °F - 44.6 °F 87% 30.04 in 5.0 mi SSW 17.3 mph - N/A   Overcast
12:16 PM 48.2 °F - 46.4 °F 93% 30.05 in 5.0 mi South 16.1 mph - N/A   Overcast
12:36 PM 50.0 °F - 46.4 °F 87% 30.05 in 6.0 mi SSW 17.3 mph - N/A   Overcast
12:56 PM 48.2 °F - 44.6 °F 87% 30.06 in 7.0 mi SSW 19.6 mph - N/A   Overcast
1:16 PM 48.2 °F - 44.6 °F 87% 30.06 in 6.0 mi SSW 18.4 mph - N/A   Overcast
1:36 PM 48.2 °F - 46.4 °F 93% 30.06 in 6.0 mi SSW 18.4 mph - N/A   Overcast
1:56 PM 48.2 °F - 46.4 °F 93% 30.06 in 7.0 mi SSW 18.4 mph - N/A   Overcast
2:16 PM 48.2 °F - 44.6 °F 87% 30.06 in 7.0 mi SSW 18.4 mph - N/A   Overcast
2:36 PM 48.2 °F - 44.6 °F 87% 30.06 in 5.0 mi SSW 18.4 mph - N/A   Overcast
2:56 PM 48.2 °F - 46.4 °F 93% 30.07 in 5.0 mi SSW 18.4 mph - N/A   Overcast
3:16 PM 50.0 °F - 46.4 °F 87% 30.07 in 6.0 mi SSW 17.3 mph - N/A   Overcast
3:36 PM 48.2 °F - 46.4 °F 93% 30.07 in 5.0 mi SSW 19.6 mph - N/A   Overcast
3:56 PM 48.2 °F - 46.4 °F 93% 30.07 in 6.0 mi SW 18.4 mph - N/A   Overcast
4:16 PM 48.2 °F - 46.4 °F 93% 30.07 in 7.0 mi SW 18.4 mph - N/A   Overcast
4:36 PM 48.2 °F - 44.6 °F 87% 30.08 in 7.0 mi SW 18.4 mph - N/A   Overcast
4:56 PM 48.2 °F - 46.4 °F 93% 30.08 in 7.0 mi SW 17.3 mph - N/A   Overcast
5:16 PM 48.2 °F - 44.6 °F 87% 30.08 in 7.0 mi SW 17.3 mph - N/A   Overcast
5:36 PM 48.2 °F - 44.6 °F 87% 30.09 in 7.0 mi SSW 18.4 mph - N/A   Overcast
5:56 PM 48.2 °F - 44.6 °F 87% 30.09 in 7.0 mi SSW 17.3 mph - N/A   Overcast
6:16 PM 48.2 °F - 44.6 °F 87% 30.09 in 7.0 mi SW 17.3 mph - N/A   Overcast
6:36 PM 48.2 °F - 44.6 °F 87% 30.10 in 7.0 mi SW 17.3 mph - N/A   Overcast
6:56 PM 48.2 °F - 44.6 °F 87% 30.10 in 7.0 mi SW 17.3 mph - N/A   Overcast
7:16 PM 48.2 °F - 44.6 °F 87% 30.10 in 7.0 mi SW 19.6 mph - N/A   Overcast
7:36 PM 48.2 °F - 44.6 °F 87% 30.10 in 7.0 mi SW 16.1 mph - N/A   Overcast
7:56 PM 48.2 °F - 44.6 °F 87% 30.10 in 7.0 mi SW 17.3 mph - N/A   Overcast
8:36 PM 48.2 °F - 44.6 °F 87% 30.10 in 7.0 mi SW 13.8 mph - N/A   Overcast
8:56 PM 48.2 °F - 44.6 °F 87% 30.11 in 8.0 mi SW 13.8 mph - N/A   Overcast
9:16 PM 48.2 °F - 44.6 °F 87% 30.11 in 8.0 mi SW 13.8 mph - N/A   Overcast
9:36 PM 48.2 °F - 44.6 °F 87% 30.11 in 9.0 mi WSW 13.8 mph - N/A   Overcast
9:56 PM 48.2 °F - 44.6 °F 87% 30.11 in 8.0 mi SW 11.5 mph - N/A   Overcast
10:16 PM 48.2 °F - 44.6 °F 87% 30.11 in 9.0 mi SW 11.5 mph - N/A   Overcast
10:56 PM 48.2 °F - 44.6 °F 87% 30.11 in 3.0 mi SSW 11.5 mph - N/A   Overcast
11:16 PM 48.2 °F - 44.6 °F 87% 30.12 in 6.0 mi SSW 13.8 mph - N/A   Overcast
11:36 PM 48.2 °F - 44.6 °F 87% 30.12 in 4.0 mi SSW 13.8 mph - N/A   Overcast
11:56 PM 48.2 °F - 44.6 °F 87% 30.12 in 7.0 mi SSW 12.7 mph - N/A   Overcast